• In Moldova, Republic
  • List of Countries
  • For 7 days
  • Water Temperature
  • Satellite Maps
  • Weather Map
  • Weather Widgets
  • user-avatar
    Login

    Hourly Weather Igls

    Today, 21 July, Friday

    Time Temperature Precipitation Wind Pressure Humidity
    00:00 +16°C° 0.4 mm 1 mps 685 mmHg 93%
    01:00 +16°C° 0 mm 1 mps 685 mmHg 90%
    02:00 +15°C° 0 mm 1 mps 684 mmHg 89%
    03:00 +15°C° 0 mm 1 mps 684 mmHg 89%
    04:00 +14°C° 0 mm 1 mps 684 mmHg 88%
    05:00 +16°C° 0 mm 1 mps 684 mmHg 85%
    06:00 +18°C° 0 mm 1 mps 685 mmHg 81%
    07:00 +20°C° 0 mm 1 mps 685 mmHg 78%
    08:00 +22°C° 0.1 mm 1 mps 685 mmHg 69%
    09:00 +24°C° 0.1 mm 1 mps 686 mmHg 60%
    10:00 +26°C° 0.1 mm 2 mps 686 mmHg 51%
    11:00 +26°C° 0.2 mm 2 mps 686 mmHg 49%
    12:00 +27°C° 0.2 mm 2 mps 685 mmHg 47%
    13:00 +28°C° 0.2 mm 2 mps 685 mmHg 46%
    14:00 +28°C° 0.4 mm 2 mps 685 mmHg 48%
    15:00 +27°C° 0.4 mm 2 mps 685 mmHg 50%
    16:00 +27°C° 0.4 mm 2 mps 685 mmHg 52%
    17:00 +26°C° 1.6 mm 2 mps 684 mmHg 62%
    18:00 +24°C° 1.6 mm 2 mps 684 mmHg 72%
    19:00 +21°C° 1.6 mm 2 mps 684 mmHg 82%
    20:00 +20°C° 1.2 mm 2 mps 684 mmHg 83%
    21:00 +19°C° 1.2 mm 2 mps 684 mmHg 85%
    22:00 +18°C° 1.2 mm 2 mps 684 mmHg 87%
    23:00 +18°C° 0.1 mm 2 mps 684 mmHg 87%

    Tomorrow, 22 July, Saturday

    Time Temperature Precipitation Wind Pressure Humidity
    00:00 +17°C° 0.1 mm 2 mps 684 mmHg 87%
    01:00 +17°C° 0.1 mm 2 mps 684 mmHg 88%
    02:00 +17°C° 0.3 mm 2 mps 684 mmHg 88%
    03:00 +16°C° 0.3 mm 2 mps 684 mmHg 88%
    04:00 +16°C° 0.3 mm 1 mps 684 mmHg 88%
    05:00 +18°C° 0.1 mm 1 mps 684 mmHg 85%
    06:00 +19°C° 0.1 mm 1 mps 684 mmHg 82%
    07:00 +20°C° 0.1 mm 1 mps 685 mmHg 79%
    08:00 +22°C° 0 mm 1 mps 685 mmHg 70%
    09:00 +25°C° 0 mm 1 mps 686 mmHg 61%
    10:00 +27°C° 0 mm 1 mps 686 mmHg 53%
    11:00 +27°C° 0.2 mm 1 mps 686 mmHg 52%
    12:00 +27°C° 0.2 mm 1 mps 686 mmHg 51%
    13:00 +28°C° 0.2 mm 1 mps 686 mmHg 49%
    14:00 +27°C° 0.9 mm 1 mps 686 mmHg 56%
    15:00 +26°C° 0.9 mm 1 mps 686 mmHg 63%
    16:00 +26°C° 0.9 mm 1 mps 685 mmHg 69%
    17:00 +24°C° 1.8 mm 1 mps 685 mmHg 76%
    18:00 +23°C° 1.8 mm 1 mps 685 mmHg 83%
    19:00 +21°C° 1.8 mm 1 mps 685 mmHg 89%
    20:00 +21°C° 1.6 mm 1 mps 685 mmHg 91%
    21:00 +20°C° 1.6 mm 1 mps 685 mmHg 93%
    22:00 +17°C° 1.6 mm 0 mps 686 mmHg 96%
    23:00 +19°C° 0.8 mm 1 mps 685 mmHg 96%

    Day after tomorrow, 23 July, Sunday

    Time Temperature Precipitation Wind Pressure Humidity
    00:00 +18°C° 0.8 mm 1 mps 685 mmHg 96%
    01:00 +18°C° 0.8 mm 1 mps 685 mmHg 96%
    02:00 +18°C° 0.5 mm 1 mps 685 mmHg 95%
    03:00 +18°C° 0.5 mm 1 mps 685 mmHg 95%
    04:00 +16°C° 0.5 mm 1 mps 685 mmHg 95%
    05:00 +18°C° 0.1 mm 1 mps 685 mmHg 91%
    06:00 +20°C° 0.1 mm 1 mps 686 mmHg 88%
    07:00 +21°C° 0.1 mm 1 mps 686 mmHg 85%
    08:00 +22°C° 0.2 mm 1 mps 686 mmHg 80%
    09:00 +22°C° 0.2 mm 1 mps 686 mmHg 75%
    10:00 +23°C° 0.2 mm 2 mps 686 mmHg 70%
    11:00 +23°C° 0.4 mm 1 mps 686 mmHg 72%
    12:00 +23°C° 0.4 mm 1 mps 686 mmHg 75%
    13:00 +23°C° 0.4 mm 1 mps 686 mmHg 78%
    14:00 +21°C° 0.6 mm 2 mps 686 mmHg 81%
    15:00 +21°C° 0.6 mm 2 mps 685 mmHg 84%
    16:00 +20°C° 0.6 mm 2 mps 685 mmHg 86%
    17:00 +20°C° 1.1 mm 2 mps 685 mmHg 89%
    18:00 +20°C° 1.1 mm 1 mps 685 mmHg 92%
    19:00 +19°C° 1.1 mm 1 mps 685 mmHg 96%
    20:00 +19°C° 1.2 mm 1 mps 685 mmHg 96%
    21:00 +18°C° 1.2 mm 1 mps 685 mmHg 97%
    22:00 +18°C° 1.2 mm 1 mps 685 mmHg 97%
    23:00 +18°C° 0.5 mm 1 mps 685 mmHg 97%

    24 July, Monday

    Time Temperature Precipitation Wind Pressure Humidity
    00:00 +18°C° 0.5 mm 1 mps 685 mmHg 97%
    01:00 +16°C° 0.5 mm 1 mps 684 mmHg 98%
    02:00 +16°C° 0.5 mm 1 mps 684 mmHg 98%
    03:00 +16°C° 0.5 mm 1 mps 683 mmHg 98%
    04:00 +16°C° 0.5 mm 1 mps 683 mmHg 98%
    05:00 +16°C° 0.7 mm 1 mps 682 mmHg 97%
    06:00 +16°C° 0.7 mm 1 mps 682 mmHg 96%
    07:00 +16°C° 0.7 mm 1 mps 681 mmHg 96%
    08:00 +18°C° 1.4 mm 1 mps 681 mmHg 93%
    09:00 +18°C° 1.4 mm 1 mps 681 mmHg 90%
    10:00 +19°C° 1.4 mm 1 mps 680 mmHg 87%
    11:00 +17°C° 3.4 mm 2 mps 680 mmHg 89%
    12:00 +17°C° 3.4 mm 2 mps 680 mmHg 91%
    13:00 +16°C° 3.4 mm 2 mps 680 mmHg 93%
    14:00 +15°C° 3.3 mm 2 mps 680 mmHg 94%
    15:00 +14°C° 3.3 mm 2 mps 680 mmHg 95%
    16:00 +14°C° 3.3 mm 2 mps 680 mmHg 96%
    17:00 +13°C° 0.8 mm 2 mps 680 mmHg 96%
    18:00 +13°C° 0.8 mm 2 mps 680 mmHg 95%
    19:00 +13°C° 0.8 mm 2 mps 680 mmHg 95%
    20:00 +13°C° 0.1 mm 2 mps 680 mmHg 95%
    21:00 +12°C° 0.1 mm 2 mps 680 mmHg 96%
    22:00 +10°C° 0.1 mm 2 mps 680 mmHg 96%
    23:00 +10°C° 0.2 mm 2 mps 680 mmHg 96%

    25 July, Tuesday

    Time Temperature Precipitation Wind Pressure Humidity
    00:00 +10°C° 0.2 mm 2 mps 680 mmHg 96%
    01:00 +10°C° 0.2 mm 2 mps 680 mmHg 96%
    02:00 +10°C° 0.4 mm 2 mps 680 mmHg 96%
    03:00 +10°C° 0.4 mm 2 mps 680 mmHg 96%
    04:00 +10°C° 0.4 mm 2 mps 680 mmHg 96%
    05:00 +10°C° 0.7 mm 2 mps 680 mmHg 95%
    06:00 +11°C° 0.7 mm 1 mps 680 mmHg 94%
    07:00 +12°C° 0.7 mm 1 mps 680 mmHg 93%
    08:00 +12°C° 1.1 mm 1 mps 680 mmHg 91%
    09:00 +13°C° 1.1 mm 1 mps 680 mmHg 89%
    10:00 +14°C° 1.1 mm 1 mps 680 mmHg 87%
    11:00 +14°C° 1.1 mm 2 mps 680 mmHg 86%
    12:00 +14°C° 1.1 mm 2 mps 680 mmHg 85%
    13:00 +14°C° 1.1 mm 2 mps 680 mmHg 85%
    14:00 +15°C° 0.5 mm 2 mps 680 mmHg 83%
    15:00 +15°C° 0.5 mm 2 mps 680 mmHg 80%
    16:00 +15°C° 0.5 mm 2 mps 680 mmHg 78%
    17:00 +15°C° 0.5 mm 2 mps 680 mmHg 82%
    18:00 +14°C° 0.5 mm 2 mps 680 mmHg 85%
    19:00 +13°C° 0.5 mm 2 mps 681 mmHg 89%
    20:00 +13°C° 0.5 mm 2 mps 681 mmHg 90%
    21:00 +12°C° 0.5 mm 2 mps 681 mmHg 92%
    22:00 +12°C° 0.5 mm 2 mps 681 mmHg 94%
    23:00 +12°C° 0.6 mm 2 mps 681 mmHg 94%

    26 July, Wednesday

    Time Temperature Precipitation Wind Pressure Humidity
    00:00 +10°C° 0.6 mm 2 mps 681 mmHg 94%
    01:00 +10°C° 0.6 mm 2 mps 681 mmHg 94%
    02:00 +10°C° 0.9 mm 2 mps 681 mmHg 94%
    03:00 +10°C° 0.9 mm 2 mps 681 mmHg 94%
    04:00 +10°C° 0.9 mm 2 mps 681 mmHg 94%
    05:00 +12°C° 0.7 mm 2 mps 681 mmHg 93%
    06:00 +12°C° 0.7 mm 2 mps 681 mmHg 92%
    07:00 +13°C° 0.7 mm 2 mps 681 mmHg 91%
    08:00 +14°C° 0.1 mm 2 mps 682 mmHg 84%
    09:00 +16°C° 0.1 mm 2 mps 682 mmHg 77%
    10:00 +18°C° 0.1 mm 2 mps 683 mmHg 70%
    11:00 +19°C° 0.1 mm 2 mps 683 mmHg 64%
    12:00 +20°C° 0.1 mm 2 mps 683 mmHg 57%
    13:00 +23°C° 0.1 mm 2 mps 683 mmHg 51%
    14:00 +23°C° 0 mm 2 mps 683 mmHg 50%
    15:00 +22°C° 0 mm 3 mps 683 mmHg 49%
    16:00 +22°C° 0 mm 3 mps 683 mmHg 48%
    17:00 +20°C° 0 mm 2 mps 683 mmHg 56%
    18:00 +19°C° 0 mm 2 mps 683 mmHg 65%
    19:00 +19°C° 0 mm 1 mps 683 mmHg 73%
    20:00 +16°C° 0 mm 1 mps 683 mmHg 78%
    21:00 +14°C° 0 mm 1 mps 683 mmHg 84%
    22:00 +12°C° 0 mm 1 mps 683 mmHg 89%
    23:00 +12°C° 0 mm 1 mps 683 mmHg 89%
    Show more